This demonstration page uses our WeatherBlox Daily Observations layout. Learn more.

Left ArrowRight Arrow

Hourly Observations for March 12, 2021

Temp ( °F °C ) Dew Point ( °F °C ) Humidity (%) Winds ( mph kmh ) Pressure ( in mb ) Visibility ( mi km ) Precip ( " mm )
12:15 am 00:15 Clear 38 3.4 25 -3.7 60 60 E 12 19 30.34 1028 10 16 N/A
12:35 am 00:35 Clear 37 2.9 25 -4 61 61 E 9 15 30.35 1028 10 16 N/A
12:55 am 00:55 Clear 37 2.7 25 -4 62 62 E 9 15 30.34 1027 10 16 N/A
1:15 am 01:15 Clear 37 2.6 25 -4 62 62 E 12 19 30.34 1027 10 16 N/A
1:35 am 01:35 Clear 32 undefined 24 -4.3 73 73 ENE 9 15 30.38 1029 10 16 N/A
1:55 am 01:55 Clear 35 1.8 25 -4 66 66 E 9 15 30.36 1028 10 16 N/A
2:15 am 02:15 Clear 33 0.3 25 -4 73 73 E 6 9 30.38 1029 10 16 N/A
2:35 am 02:35 Clear 31 -0.4 24 -4.5 74 74 E 7 11 30.39 1029 10 16 N/A
2:55 am 02:55 Clear 31 -0.5 24 -4.5 75 75 ESE 7 11 30.39 1029 10 16 N/A
3:15 am 03:15 Clear 31 -0.3 24 -4.5 74 74 E 9 15 30.39 1029 10 16 N/A
3:35 am 03:35 Clear 34 1 25 -3.9 70 70 ENE 10 17 30.36 1028 10 16 N/A
3:55 am 03:55 Clear 31 -0.4 24 -4.4 75 75 NE 5 7 30.38 1029 10 16 N/A
4:15 am 04:15 Clear 30 -0.9 25 -4 80 80 NE 5 7 30.39 1029 10 16 N/A
4:35 am 04:35 Partly Cloudy 32 undefined 26 -3.2 79 79 NE 8 13 30.38 1029 10 16 N/A
4:55 am 04:55 Mostly Cloudy 33 0.5 26 -3.5 75 75 E 5 7 30.40 1029 10 16 N/A
5:15 am 05:15 Cloudy 33 0.5 26 -3.2 77 77 E 3 6 30.41 1030 10 16 N/A
5:35 am 05:35 Cloudy 34 1 27 -3 75 75 E 6 9 30.40 1029 10 16 N/A
5:55 am 05:55 Cloudy 34 1.2 27 -2.6 76 76 ENE 7 11 30.39 1029 10 16 N/A
6:15 am 06:15 Cloudy 36 2 27 -2.6 72 72 ESE 12 19 30.41 1030 10 16 N/A
6:35 am 06:35 Partly Cloudy 34 1.1 27 -2.8 76 76 E 10 17 30.40 1029 10 16 N/A
6:55 am 06:55 Partly Cloudy 34 1.3 27 -3 73 73 E 9 15 30.38 1029 10 16 N/A
7:15 am 07:15 Partly Cloudy 35 1.7 26 -3.1 71 71 E 8 13 30.39 1029 10 16 N/A
7:35 am 07:35 Mostly Cloudy 36 2.4 26 -3.5 65 65 ENE 10 17 30.38 1029 10 16 N/A
7:55 am 07:55 Mostly Cloudy 38 3.2 26 -3.3 63 63 ENE 9 15 30.37 1028 10 16 N/A
8:15 am 08:15 Partly Cloudy 39 3.9 27 -3 61 61 ENE 9 15 30.37 1028 10 16 N/A
8:35 am 08:35 Mostly Cloudy 39 4 27 -2.6 62 62 NE 7 11 30.40 1029 10 16 N/A
8:55 am 08:55 Mostly Cloudy 40 4.6 27 -2.8 59 59 ENE 7 11 30.40 1030 10 16 N/A
9:15 am 09:15 Partly Cloudy 42 5.5 28 -2.5 57 57 E 7 11 30.39 1029 10 16 N/A
9:35 am 09:35 Sunny 44 6.5 28 -2.5 53 53 E 7 11 30.39 1029 10 16 N/A
9:55 am 09:55 Sunny 45 7.2 28 -2.1 52 52 E 10 17 30.38 1029 10 16 N/A
10:15 am 10:15 Sunny 46 7.6 28 -2.3 50 50 E 10 17 30.37 1029 10 16 N/A
10:35 am 10:35 Sunny 48 9 28 -2.2 46 46 E 16 26 30.36 1028 10 16 N/A
10:55 am 10:55 Sunny 48 9.1 28 -2.3 45 45 ESE 18 30 30.36 1028 10 16 N/A
11:15 am 11:15 Sunny 49 9.5 28 -2.3 44 44 ESE 16 26 30.37 1028 10 16 N/A
11:35 am 11:35 Partly Cloudy 50 10 28 -2.5 42 42 ESE 18 30 30.35 1028 10 16 N/A
11:55 am 11:55 Partly Cloudy 50 9.8 28 -2.2 43 43 ESE 15 24 30.36 1028 10 16 N/A
12:15 pm 12:15 Partly Cloudy 52 10.9 28 -2.3 40 40 E 18 30 30.34 1028 10 16 N/A
12:35 pm 12:35 Mostly Cloudy 53 11.4 27 -2.8 37 37 ESE 18 30 30.35 1028 10 16 N/A
12:55 pm 12:55 Mostly Cloudy 51 10.5 28 -2.5 40 40 ESE 15 24 30.35 1028 10 16 N/A
1:15 pm 13:15 Partly Cloudy 51 10.6 28 -2.4 40 40 ESE 14 22 30.35 1028 10 16 N/A
1:35 pm 13:35 Partly Cloudy 51 10.5 27 -2.7 40 40 ESE 18 30 30.34 1027 10 16 N/A
1:55 pm 13:55 Sunny 51 10.8 28 -2.3 40 40 SE 16 26 30.34 1027 10 16 N/A
2:15 pm 14:15 Sunny 51 10.5 28 -2.1 42 42 ESE 14 22 30.32 1027 10 16 N/A
2:35 pm 14:35 Sunny 51 10.4 28 -2 42 42 SE 13 20 30.32 1027 10 16 N/A
2:55 pm 14:55 Partly Cloudy 51 10.6 28 -2.3 41 41 SE 12 19 30.31 1026 10 16 N/A
3:15 pm 15:15 Mostly Cloudy 52 10.9 29 -1.9 41 41 ESE 12 19 30.30 1026 10 16 N/A
3:35 pm 15:35 Mostly Cloudy 51 10.6 28 -2.5 40 40 ESE 13 20 30.31 1026 10 16 N/A
3:55 pm 15:55 Cloudy 51 10.5 27 -3 39 39 ESE 15 24 30.31 1026 10 16 N/A
4:15 pm 16:15 Cloudy 51 10.5 26 -3.3 38 38 E 16 26 30.30 1026 10 16 N/A
4:35 pm 16:35 Cloudy 50 10.2 26 -3.6 38 38 ESE 17 28 30.29 1026 10 16 N/A
4:55 pm 16:55 Mostly Cloudy 50 9.9 25 -3.8 38 38 ESE 17 28 30.29 1026 10 16 N/A
5:15 pm 17:15 Mostly Cloudy 49 9.5 26 -3.4 40 40 ESE 17 28 30.30 1026 10 16 N/A
5:35 pm 17:35 Cloudy 49 9.2 26 -3.3 42 42 E 15 24 30.31 1026 10 16 N/A
5:55 pm 17:55 Cloudy 48 8.8 26 -3.1 43 43 ESE 17 28 30.30 1026 10 16 N/A
6:15 pm 18:15 Cloudy 47 8.1 30 -0.9 53 53 SE 15 24 30.32 1027 10 16 N/A
6:35 pm 18:35 Cloudy 46 7.6 31 -0.5 57 57 ESE 13 20 30.32 1027 10 16 N/A
6:55 pm 18:55 Cloudy 45 7.2 31 -0.7 58 58 ESE 14 22 30.33 1027 10 16 N/A
7:15 pm 19:15 Cloudy 45 7.1 30 -1.1 56 56 E 12 19 30.33 1027 10 16 N/A
7:35 pm 19:35 Cloudy 45 7 28 -2 53 53 E 12 19 30.34 1027 10 16 N/A
7:55 pm 19:55 Cloudy 45 7 28 -2.2 52 52 E 13 20 30.34 1027 10 16 N/A
8:15 pm 20:15 Cloudy 45 7 28 -2.5 51 51 E 14 22 30.34 1027 10 16 N/A
8:35 pm 20:35 Cloudy 44 6.8 28 -2.1 53 53 E 13 20 30.35 1028 10 16 N/A
8:55 pm 20:55 Cloudy 44 6.5 29 -1.9 55 55 E 15 24 30.35 1028 10 16 N/A
9:15 pm 21:15 Cloudy 43 6.3 29 -1.6 57 57 E 13 20 30.36 1028 10 16 N/A
9:35 pm 21:35 Cloudy 43 6.2 29 -1.6 58 58 E 14 22 30.37 1028 10 16 N/A
9:55 pm 21:55 Cloudy 41 4.9 33 0.6 74 74 E 15 24 30.39 1029 7 11 N/A
10:15 pm 22:15 Cloudy 40 4.6 34 1.2 79 79 E 20 31 30.39 1029 10 16 N/A
10:35 pm 22:35 Cloudy 39 4 35 1.6 85 85 ESE 16 26 30.40 1029 7 11 N/A
10:55 pm 22:55 Cloudy 40 4.6 34 1 78 78 ESE 17 28 30.39 1029 10 16 N/A
11:15 pm 23:15 Cloudy 40 4.7 33 0.8 76 76 ESE 10 17 30.39 1029 10 16 N/A
11:35 pm 23:35 Cloudy 41 4.8 33 0.7 75 75 E 8 13 30.38 1029 10 16 N/A
11:55 pm 23:55 Cloudy 41 5.2 31 -0.3 68 68 E 10 17 30.37 1028 10 16 N/A

Powered by AerisWeather